This is the latest recevied weather packets stored in our database for station/object KG5APU. If no packets are shown the sender has not sent any weather packets the latest 10 day(s).
| Time | Temp. | Humidity | Pressure | Rain* | Wind** | Luminosity | Snow |
|---|---|---|---|---|---|---|---|
| 1788467460 | 32.22° C | 64% | 1013.3 hPa | 0 mm | - | 229 W/m² | - |
| 1788466856 | 32.22° C | 64% | 1013.3 hPa | 0 mm | - | 639 W/m² | - |
| 1788466256 | 32.22° C | 63% | 1013.7 hPa | 0 mm | - | 701 W/m² | - |
| 1788465652 | 31.67° C | 66% | 1013.8 hPa | 0 mm | - | 712 W/m² | - |
| 1788465050 | 31.67° C | 64% | 1013.5 hPa | 0 mm | - | 765 W/m² | - |
| 1788464446 | 30.56° C | 68% | 1013.7 hPa | 0 mm | - | 906 W/m² | - |
| 1788463842 | 31.67° C | 67% | 1013.6 hPa | 0 mm | - | 338 W/m² | - |
| 1788463240 | 31.67° C | 67% | 1013.7 hPa | 0 mm | - | 465 W/m² | - |
| 1788462636 | 30.56° C | 69% | 1014 hPa | 0 mm | - | 870 W/m² | - |
| 1788462036 | 30° C | 71% | 1014.3 hPa | 0 mm | - | 525 W/m² | - |
| 1788461432 | 29.44° C | 73% | 1014.3 hPa | 0 mm | - | 859 W/m² | - |
| 1788460829 | 28.89° C | 75% | 1014.6 hPa | 0 mm | - | 407 W/m² | - |
| 1788460223 | 28.89° C | 77% | 1014.7 hPa | 0 mm | - | 282 W/m² | - |
| 1788459619 | 28.33° C | 77% | 1014.8 hPa | 0 mm | - | 328 W/m² | - |
| 1788459017 | 27.78° C | 79% | 1015 hPa | 0 mm | - | 252 W/m² | - |
| 1788458412 | 27.78° C | 80% | 1015 hPa | 0 mm | - | 198 W/m² | - |
| 1788457810 | 27.22° C | 82% | 1015.3 hPa | 0 mm | - | 103 W/m² | - |
| 1788457206 | 27.22° C | 83% | 1015.2 hPa | 0 mm | - | 114 W/m² | - |
| 1788456602 | 27.22° C | 85% | 1015.3 hPa | 0 mm | - | 172 W/m² | - |
| 1788455998 | 26.67° C | 86% | 1015.4 hPa | 0 mm | - | 172 W/m² | - |
| 1788455394 | 26.67° C | 87% | 1015.3 hPa | 0 mm | - | 139 W/m² | - |
| 1788454788 | 26.67° C | 87% | 1015.4 hPa | 0 mm | - | 98 W/m² | - |
| 1788454182 | 26.11° C | 89% | 1015.6 hPa | 0 mm | - | 88 W/m² | - |
| 1788453583 | 26.11° C | 89% | 1015 hPa | 0 mm | - | 105 W/m² | - |
| 1788452981 | 26.11° C | 89% | 1015.2 hPa | 0 mm | - | 67 W/m² | - |
* Rain latest hour (hover to see other rain measurements)
** Current wind speed in m/s (hover to see current wind gust speed)